Location: Basin
(44.3800°N, 108.0380°W)
Time: 00:29:28
(UTC-06:00)

OTV 5 (USA 277) - Visible Passes

Search period start: 18 October 2019 00:00
Search period end: 28 October 2019 00:00
Orbit: 310 x 324 km, 54.5° (Epoch: 08 October)

Date Brightness Start Highest point End Pass type
(mag) Time Alt. Az. Time Alt. Az. Time Alt. Az.
18 Oct ? 06:10:32 30° NW 06:11:39 63° NE 06:14:22 10° ESE visible
19 Oct ? 06:25:04 27° W 06:26:12 45° SW 06:28:49 10° SSE visible
20 Oct ? 05:08:49 12° ESE 05:08:49 12° ESE 05:09:04 10° ESE visible
20 Oct ? 06:39:44 15° WSW 06:40:34 17° SW 06:42:29 10° S visible
21 Oct ? 05:23:36 11° SE 05:23:36 11° SE 05:23:47 10° SE visible
27 Oct ? 19:58:00 10° SSW 19:58:47 17° SSW 19:58:47 17° SSW visible
